Location: May
(33.8950°N, 117.4909°W)
Time: 15:13:47
(UTC+00:00)

Daily predictions for brighter satellites

Satellite Brightness Start Highest point End
(mag) Time Altitude Azimuth Time Altitude Azimuth Time Altitude Azimuth
ATLAS 3B R/B 3.8 12:14:26 10° S 12:20:20 39° ESE 12:26:25 10° NE
Cosmos 1151 Rocket 4.1 12:23:48 37° NE 12:24:43 43° E 12:28:52 10° SSE
H-2A R/B 3.9 12:28:04 39° E 12:28:27 40° E 12:32:02 10° S
Cosmos 1634 Rocket 4.0 12:24:45 23° N 12:28:48 82° E 12:35:00 10° S
SL-4 R/B 3.8 12:33:52 20° SSE 12:34:47 23° SE 12:37:36 10° ENE
Meteor 1-31 Rocket 4.4 12:31:40 10° NNE 12:35:16 35° E 12:38:52 10° SSE
BREEZE-M DEB 3.6 12:37:56 43° E 12:37:56 43° E 12:41:34 10° NE
Okean 3 Rocket 3.5 12:36:55 10° S 12:41:26 87° E 12:46:00 10° N
DELTA 2 R/B (1) 3.9 12:41:22 47° NNW 12:41:43 48° N 12:47:04 10° ENE
Cosmos 1354 Rocket 3.8 12:37:05 10° SSW 12:42:20 82° WNW 12:47:40 10° NNE
Cosmos 2369 Rocket 4.2 12:49:41 13° N 12:49:41 13° N 12:50:23 10° N
Meteor 2-13 Rocket 4.5 12:39:52 10° SSW 12:45:46 51° W 12:51:41 10° N
MOS 1-B Rocket 4.1 12:39:51 10° SSE 12:46:14 75° ENE 12:51:57 10° N
Cosmos 1328 Rocket 4.0 12:47:57 19° N 12:51:00 61° E 12:55:16 10° SSE
CZ-2C R/B 3.0 12:53:08 10° SSE 12:58:34 64° ENE 13:03:53 10° N
CZ-4B R/B 4.1 12:55:29 10° NNE 12:59:58 83° E 13:04:23 10° S
OAO 2 Rocket 4.3 12:58:55 19° SW 13:02:21 44° SSE 13:07:14 10° E
COSMO-SKYMED 1 2.9 12:58:15 10° SSE 13:02:32 64° ENE 13:06:50 10° N
Meteor 1-10 Rocket 4.4 13:01:26 10° N 13:06:58 72° E 13:12:30 10° SSE
SL-27 R/B 4.1 13:05:01 11° N 13:08:02 33° ENE 13:11:13 10° SE
Cosmos 1408 Rocket 3.4 13:06:50 10° S 13:11:08 84° W 13:15:26 10° N
ADEOS 4.0 13:06:48 10° NNE 13:11:59 65° ESE 13:17:09 10° S
Landsat 5 3.9 13:12:39 10° SSE 13:17:07 69° ENE 13:21:34 10° N
DNEPR-1 R/B 4.1 13:14:24 24° NW 13:17:42 74° WSW 13:23:59 10° SSE
Cosmos 1743 Rocket 4.0 13:17:42 10° S 13:22:02 63° E 13:26:20 10° NNE
FALCON 9 R/B 4.1 13:04:13 23° W 13:22:10 84° SSW 13:29:08 10° ESE
Cosmos 1777 Rocket 4.0 13:22:02 10° SSW 13:27:08 57° WNW 13:32:17 10° N
SJ 16-02 1.3 13:24:00 10° SSW 13:28:17 55° WNW 13:32:35 10° N
Cosmos 1812 4.4 13:33:40 17° WSW 13:33:40 17° WSW 13:35:20 10° SW
Cosmos 773 Rocket 4.0 13:29:08 10° NNW 13:34:21 89° ENE 13:39:30 10° SSE
CZ-2C R/B 3.2 13:31:01 10° NNE 13:36:02 75° ESE 13:41:19 10° S
Cosmos 1515 Rocket 3.4 13:32:17 10° N 13:36:37 73° W 13:40:55 10° S
BREEZE-M DEB (TANK) 3.9 13:28:25 13° NW 13:41:46 58° SW 13:46:14 10° SSE
Meteor 2-15 Rocket 4.4 13:36:07 10° N 13:42:12 81° W 13:48:15 10° S
NOAA 11 4.1 13:37:05 10° N 13:42:33 72° WNW 13:48:01 10° SSW
Cosmos 1340 Rocket 2.8 13:38:50 10° SSW 13:42:43 58° W 13:46:39 10° N
CZ-4B R/B 2.6 13:41:33 10° NNE 13:45:08 86° E 13:48:48 10° SSW
ATLAS 5 CENTAUR R/B 2.6 13:44:49 18° WNW 13:46:00 20° NW 13:49:05 10° N
Cosmos 1500 Rocket 3.7 13:44:53 10° SSW 13:49:14 54° W 13:53:37 10° N
Envisat 4.0 13:46:25 10° NNW 13:50:24 24° WNW 13:54:23 10° WSW
SKYMED 2 4.3 13:46:45 10° SSW 13:50:37 32° W 13:54:32 10° NNW
Sich 1 3.5 13:47:51 10° S 13:52:05 65° E 13:56:19 10° NNE
Nadezhda 4 Rocket 4.2 13:50:02 10° SSW 13:55:53 46° W 14:01:51 10° N
DMSP B5D2-2 4.1 13:51:21 10° SSE 13:56:33 88° E 14:01:47 10° NNW
H-2A R/B 2.7 13:57:26 10° SSE 14:01:36 59° ENE 14:05:54 10° N
Cosmos 1805 Rocket 3.5 13:57:16 10° SSW 14:01:39 71° W 14:06:01 10° N
COSMOS 2487 2.6 14:01:32 10° NNW 14:04:52 70° ENE 14:08:11 10° SSE
CZ-4C R/B 3.6 14:02:42 10° SSW 14:05:30 30° W 14:08:17 10° NW
Lacrosse 5 2.2 14:01:02 10° SSW 14:06:04 71° SE 14:11:09 10° NE
BREEZE-M DEB (TANK) 4.4 13:55:46 10° WSW 14:07:19 32° NW 14:11:07 10° NNE
ATLAS 3B R/B 3.2 14:05:10 10° WSW 14:10:59 34° NW 14:17:03 10° NNE
Meteor 1-27 Rocket 4.0 14:05:41 10° NNW 14:11:08 48° W 14:16:41 10° SSW
Alouette 2 Rocket 3.2 14:08:25 10° NNW 14:11:57 72° W 14:15:57 10° S
Cosmos 1428 Rocket 4.4 14:06:09 10° SSW 14:12:16 71° W 14:18:23 10° N
AQUARIUS 4.3 14:09:29 10° NNE 14:13:59 84° E 14:18:28 10° S
SL-4 R/B 2.6 14:11:02 10° W 14:14:08 29° NW 14:17:24 10° NNE
Cosmos 1939 Rocket 2.8 14:10:57 10° N 14:14:46 56° WNW 14:18:31 10° SSW
Cosmos 1092 Rocket 4.1 14:08:51 10° SSW 14:14:58 58° W 14:21:11 10° N
